Location: Newark
(42.8481°N, 0.4872°E)
Time: 11:32:46
(UTC+00:00)

Explorer 7 - Pass Details

Date: 27 October 2020
Orbit: 484 x 678 km, 50.3° (Epoch: 03 December)

Event Time Altitude Azimuth Distance (km) Brightness Sun altitude
Rises 18:45:38 0° 300° (WNW) 2,618 11.3 -20.5°
Reaches altitude 10° 18:47:50 10° 306° (NW) 1,755 10.1 -20.9°
Enters shadow 18:51:40 51° 20° (NNE) 684 7.1 -21.6°
